Location: Recife
(8.0585°S, 34.8848°W)
Time: 14:24:26
(UTC-03:00)

Tiros 1 despin weight - Pass Details

Date: 23 April 2026
Orbit: 555 x 591 km, 48.2° (Epoch: 14 May)

Event Time Altitude Azimuth Distance (km) Brightness Sun altitude
Rises 22:06:23 0° 319° (NW) 2,798 - -71.8°
Reaches altitude 10° 22:08:39 10° 318° (NW) 1,904 - -72.4°
Maximum altitude 22:13:01 81° 232° (SW) 600 - -73.4°
Drops below altitude 10° 22:17:26 10° 143° (SE) 1,918 - -74.4°
Sets 22:19:43 0° 142° (SE) 2,820 - -75.0°
